TimeEST,TemperatureF,Dew PointF,Humidity,Sea Level PressureIn,VisibilityMPH,Wind Direction,Wind SpeedMPH,Gust SpeedMPH,PrecipitationIn,Events,Conditions,WindDirDegrees,DateUTC
12:15 AM,25.2,22.3,89,30.04,10.0,Calm,Calm,-,N/A,,Clear,0,2014-01-20 05:15:00
12:35 AM,23.4,21.9,94,30.04,10.0,Calm,Calm,-,N/A,,Clear,0,2014-01-20 05:35:00
12:55 AM,23.0,21.4,94,30.03,10.0,Calm,Calm,-,N/A,,Clear,0,2014-01-20 05:55:00
1:15 AM,21.9,19.0,89,30.02,10.0,Calm,Calm,-,N/A,,Clear,0,2014-01-20 06:15:00
1:35 AM,22.1,20.5,93,30.02,10.0,Calm,Calm,-,N/A,,Clear,0,2014-01-20 06:35:00
1:55 AM,22.1,20.3,93,30.02,10.0,Calm,Calm,-,N/A,,Clear,0,2014-01-20 06:55:00
2:15 AM,22.1,20.1,92,30.01,10.0,Calm,Calm,-,N/A,,Clear,0,2014-01-20 07:15:00
2:35 AM,20.7,19.6,96,30.01,10.0,Calm,Calm,-,N/A,,Clear,0,2014-01-20 07:35:00
2:55 AM,21.0,19.2,93,30.02,10.0,Calm,Calm,-,N/A,,Clear,0,2014-01-20 07:55:00
3:15 AM,20.5,18.9,93,30.02,10.0,Calm,Calm,-,N/A,,Clear,0,2014-01-20 08:15:00
3:35 AM,21.0,19.6,94,30.01,10.0,ESE,3.5,-,N/A,,Clear,120,2014-01-20 08:35:00
3:55 AM,23.4,21.4,92,30.01,10.0,Calm,Calm,-,N/A,,Clear,0,2014-01-20 08:55:00
4:15 AM,21.9,20.3,93,30.02,10.0,WSW,3.5,-,N/A,,Clear,240,2014-01-20 09:15:00
4:35 AM,20.1,18.5,93,30.02,10.0,Calm,Calm,-,N/A,,Clear,0,2014-01-20 09:35:00
4:55 AM,21.0,19.4,93,30.01,10.0,NE,3.5,-,N/A,,Clear,50,2014-01-20 09:55:00
5:15 AM,19.6,18.0,93,30.01,10.0,Calm,Calm,-,N/A,,Clear,0,2014-01-20 10:15:00
5:35 AM,21.0,19.6,94,30.01,10.0,Calm,Calm,-,N/A,,Clear,0,2014-01-20 10:35:00
5:55 AM,19.6,18.0,93,30.01,10.0,Calm,Calm,-,N/A,,Clear,0,2014-01-20 10:55:00
6:15 AM,20.3,19.0,95,30.01,10.0,Calm,Calm,-,N/A,,Clear,0,2014-01-20 11:15:00
6:35 AM,19.0,17.1,92,30.01,10.0,Calm,Calm,-,N/A,,Clear,0,2014-01-20 11:35:00
6:55 AM,19.4,18.0,94,30.01,10.0,Calm,Calm,-,N/A,,Clear,0,2014-01-20 11:55:00
7:15 AM,19.8,18.1,93,30.01,10.0,Calm,Calm,-,N/A,,Clear,0,2014-01-20 12:15:00
7:35 AM,19.0,17.8,95,30.01,10.0,Calm,Calm,-,N/A,,Clear,0,2014-01-20 12:35:00
7:55 AM,19.4,17.8,93,30.01,10.0,Calm,Calm,-,N/A,,Clear,0,2014-01-20 12:55:00
8:15 AM,20.3,18.5,93,30.01,10.0,Calm,Calm,-,N/A,,Clear,0,2014-01-20 13:15:00
8:35 AM,22.1,20.1,92,30.00,10.0,Calm,Calm,-,N/A,,Clear,0,2014-01-20 13:35:00
8:55 AM,23.5,21.7,93,30.00,10.0,Calm,Calm,-,N/A,,Clear,0,2014-01-20 13:55:00
9:15 AM,25.9,22.8,88,30.01,10.0,Calm,Calm,-,N/A,,Clear,0,2014-01-20 14:15:00
9:35 AM,27.7,23.4,84,30.01,10.0,Calm,Calm,-,N/A,,Clear,0,2014-01-20 14:35:00
9:55 AM,29.7,23.4,77,30.00,10.0,Calm,Calm,-,N/A,,Clear,0,2014-01-20 14:55:00
10:15 AM,32.0,26.2,79,30.00,10.0,Calm,Calm,-,N/A,,Clear,0,2014-01-20 15:15:00
10:35 AM,34.2,25.9,72,30.00,10.0,Calm,Calm,-,N/A,,Clear,0,2014-01-20 15:35:00
10:55 AM,37.6,26.6,65,30.00,10.0,Calm,Calm,-,N/A,,Clear,0,2014-01-20 15:55:00
11:15 AM,40.6,26.6,57,30.00,10.0,Calm,Calm,-,N/A,,Clear,0,2014-01-20 16:15:00
11:35 AM,43.7,26.4,51,29.99,10.0,Calm,Calm,-,N/A,,Clear,0,2014-01-20 16:35:00
11:55 AM,47.3,26.1,44,29.98,10.0,West,5.8,-,N/A,,Clear,260,2014-01-20 16:55:00
12:15 PM,48.7,26.4,42,29.96,10.0,West,6.9,-,N/A,,Clear,280,2014-01-20 17:15:00
12:35 PM,50.2,27.3,41,29.95,10.0,West,8.1,-,N/A,,Clear,270,2014-01-20 17:35:00
12:55 PM,50.9,26.1,38,29.93,10.0,WNW,8.1,-,N/A,,Clear,290,2014-01-20 17:55:00
1:15 PM,52.0,26.6,37,29.92,10.0,West,5.8,-,N/A,,Clear,280,2014-01-20 18:15:00
1:35 PM,53.2,26.8,36,29.91,10.0,West,3.5,-,N/A,,Clear,270,2014-01-20 18:35:00
1:55 PM,54.0,26.1,34,29.90,10.0,WNW,3.5,-,N/A,,Clear,290,2014-01-20 18:55:00
2:15 PM,55.4,25.9,32,29.89,10.0,Calm,Calm,-,N/A,,Clear,0,2014-01-20 19:15:00
2:35 PM,56.8,26.1,31,29.89,10.0,NNE,3.5,-,N/A,,Clear,30,2014-01-20 19:35:00
2:55 PM,58.6,26.8,30,29.88,10.0,Calm,Calm,-,N/A,,Clear,0,2014-01-20 19:55:00
3:15 PM,59.7,27.5,29,29.88,10.0,SW,3.5,-,N/A,,Clear,220,2014-01-20 20:15:00
3:35 PM,59.5,26.4,28,29.88,10.0,SSW,5.8,-,N/A,,Clear,210,2014-01-20 20:35:00
3:55 PM,59.4,26.4,28,29.88,10.0,SW,8.1,-,N/A,,Clear,220,2014-01-20 20:55:00
4:15 PM,59.4,26.4,28,29.88,10.0,SW,9.2,-,N/A,,Clear,230,2014-01-20 21:15:00
4:35 PM,59.0,26.6,29,29.87,10.0,WSW,5.8,-,N/A,,Clear,240,2014-01-20 21:35:00
4:55 PM,58.1,26.4,30,29.88,10.0,SW,8.1,-,N/A,,Clear,230,2014-01-20 21:55:00
5:15 PM,56.7,25.5,30,29.88,10.0,SW,9.2,-,N/A,,Clear,230,2014-01-20 22:15:00
5:35 PM,55.4,25.3,31,29.88,10.0,WSW,5.8,-,N/A,,Clear,250,2014-01-20 22:35:00
5:55 PM,47.5,28.0,47,29.88,10.0,Calm,Calm,-,N/A,,Clear,0,2014-01-20 22:55:00
6:15 PM,44.6,28.4,53,29.88,10.0,Calm,Calm,-,N/A,,Clear,0,2014-01-20 23:15:00
6:35 PM,43.2,28.4,56,29.88,10.0,Calm,Calm,-,N/A,,Clear,0,2014-01-20 23:35:00
6:55 PM,40.6,28.8,63,29.89,10.0,Calm,Calm,-,N/A,,Clear,0,2014-01-20 23:55:00
7:15 PM,39.2,27.7,63,29.89,10.0,Calm,Calm,-,N/A,,Clear,0,2014-01-21 00:15:00
7:35 PM,37.9,28.2,68,29.89,10.0,Calm,Calm,-,N/A,,Clear,0,2014-01-21 00:35:00
7:55 PM,36.9,27.9,70,29.89,10.0,Calm,Calm,-,N/A,,Clear,0,2014-01-21 00:55:00
8:15 PM,32.4,27.7,83,29.89,10.0,Calm,Calm,-,N/A,,Clear,0,2014-01-21 01:15:00
8:35 PM,32.0,27.1,82,29.90,10.0,Calm,Calm,-,N/A,,Clear,0,2014-01-21 01:35:00
8:55 PM,32.7,28.4,84,29.90,10.0,Calm,Calm,-,N/A,,Clear,0,2014-01-21 01:55:00
9:15 PM,32.0,27.0,82,29.90,10.0,Calm,Calm,-,N/A,,Clear,0,2014-01-21 02:15:00
9:35 PM,31.3,26.4,82,29.90,10.0,Calm,Calm,-,N/A,,Clear,0,2014-01-21 02:35:00
9:55 PM,30.7,27.0,86,29.90,10.0,Calm,Calm,-,N/A,,Clear,0,2014-01-21 02:55:00
10:15 PM,29.5,26.2,88,29.89,10.0,Calm,Calm,-,N/A,,Clear,0,2014-01-21 03:15:00
10:35 PM,29.3,26.6,90,29.89,10.0,Calm,Calm,-,N/A,,Clear,0,2014-01-21 03:35:00
10:55 PM,29.1,27.0,92,29.89,10.0,Calm,Calm,-,N/A,,Clear,0,2014-01-21 03:55:00
11:15 PM,28.4,25.9,90,29.89,10.0,Calm,Calm,-,N/A,,Clear,0,2014-01-21 04:15:00
11:35 PM,27.5,24.4,88,29.88,10.0,Calm,Calm,-,N/A,,Clear,0,2014-01-21 04:35:00
11:55 PM,28.6,25.3,88,29.87,10.0,Calm,Calm,-,N/A,,Clear,0,2014-01-21 04:55:00